Regional Weather Roundup
Issued by NWS Grand Forks, ND

Home | Current Version | Previous Version | Graphics & Text | Print | Product List | Glossary On
Versions: 1 2 3 4 5 6 7 8 9 10 11 12 13 14 15 16 17 18 19 20 21 22 23 24 25 26 27 28 29 30 31 32 33 34 35 36 37 38 39 40 41 42 43 44 45 46 47 48 49 50
000
ASUS43 KFGF 251610
RWRFGF
PRAIRIE TO PINES  WEATHER ROUNDUP
NATIONAL WEATHER SERVICE EASTERN NORTH DAKOTA/GRAND FORKS ND
1100 AM CDT MON SEP 25 2017

 **SATELLITE DATA USED TO AUGMENT SKY COVER AT AUTOMATED STATIONS**
 *****  WEATHER ACROSS EASTERN NORTH DAKOTA  *****

CITY           SKY/WX    TMP DP  RH WIND       PRES   REMARKS
GRAND FORKS    CLOUDY    50  46  86 N13       30.13R
GRAND FRKS AFB CLOUDY    49  44  83 N10       30.14R
DEVILS LAKE    CLOUDY    48  41  76 N9        30.16S
FARGO          CLOUDY    50  49  96 N12       30.10S
WAHPETON ARPT  CLOUDY    50  45  81 N10G17    30.10R
$$

 ***** WEATHER ACROSS CENTRAL AND WESTERN NORTH DAKOTA  *****

CITY           SKY/WX    TMP DP  RH WIND       PRES   REMARKS
BISMARCK       CLOUDY    51  46  83 NE3       30.16S
MINOT          CLOUDY    50  45  83 E7        30.17R
JAMESTOWN      CLOUDY    49  43  80 N12       30.13S
MINOT AFB      CLOUDY    49  45  87 SE8       30.16
GARRISON         N/A     49  44  83 SE3       30.16R
WILLISTON      CLOUDY    48  44  86 S3        30.17R
DICKINSON      LGT RAIN  44  43  96 W3        30.15S FOG
HETTINGER      CLOUDY    44  38  79 CALM      30.17S
$$

 *****  OTHER AIRPORT OBSERVATIONS IN OUR AREA  *****

CITY           SKY/WX    TMP DP  RH WIND       PRES   REMARKS
WALHALLA       FAIR     N/A N/A N/A N12       30.16S
GRAFTON AIRPOR NOT AVBL
VALLEY CITY AR NOT AVBL
CANDO          CLOUDY    48  46  93 N10       30.19R
CAVALIER APRT  FAIR      48  45  87 N13       30.15S
GWINNER        CLOUDY    50  48  93 N13       30.10F
SHEYENNE NWR     N/A     51  47  87 N8        29.95S
ROLLA          CLOUDY    48  43  81 NE9       30.18S
 ***** THE ABOVE OBSERVATIONS ARE NON NWS ARE NOT QUALITY
       CONTROLLED AND MAY MIS-REPORT RAIN FOR SNOW...
$$

  *****  WEATHER ACROSS NORTHERN MINNESOTA  *****

CITY           SKY/WX    TMP DP  RH WIND       PRES   REMARKS
FLAG ISLAND    PTSUNNY   52  45  76 N12       30.09R
WARROAD        PTSUNNY   48  45  87 NW9       30.10S
ROSEAU           N/A     46  43  87 N9        30.11R
HALLOCK          N/A     50  46  87 N13       30.12F
THF RVR FALLS  CLOUDY    48  46  93 N12       30.11F
BAUDETTE       PTSUNNY   51  49  92 N9        30.08F
WASKISH        CLOUDY    52  48  87 N7        30.07F
CROOKSTON      CLOUDY    48  46  93 N12       30.12S
STEPHEN NDAWN    N/A     50  46  87 N14         N/A
GREENBUSH NDAW   N/A     48  46  93 N9          N/A
$$
  *****  WEATHER ACROSS CENTRAL AND WEST MINNESOTA  *****

CITY           SKY/WX    TMP DP  RH WIND       PRES   REMARKS
FOSSTON        CLOUDY    48  46  93 N10       30.10S
BEMIDJI        CLOUDY    48  47  97 N9        30.06F
PARK RAPIDS    CLOUDY    51  47  86 N9        30.05F
ELBOW LAKE     CLOUDY    51  47  87 N13       30.07R
WADENA         CLOUDY    52  48  87 N8        30.05S
DETROIT LAKES  CLOUDY    50  46  87 N5        30.08S
MOORHEAD       CLOUDY    50  46  87 N13       30.10S
FERGUS FALLS   CLOUDY    52  50  93 N9G17     30.07S
MORRIS MN      NOT AVBL
STAPLES        CLOUDY    52  48  87 N8        30.06R
$$
  *****  WEATHER ELSEWHERE ACROSS MINNESOTA  *****

CITY           SKY/WX    TMP DP  RH WIND       PRES   REMARKS
DULUTH         CLOUDY    53  52  96 NW6       30.02R
INTRNTL FALLS  CLOUDY    53  50  89 N7        30.06S
ELY            PTSUNNY   54  52  94 NW5       30.03R
CLOQUET        CLOUDY    54  50  87 N5        30.03R
WHEATON        CLOUDY    52  46  82 N14       30.10R
BRAINERD       LGT RAIN  53  50  89 NE9       30.04S
HIBBING        LGT RAIN  50  49  96 N10       30.03S
ALEXANDRIA     CLOUDY    52  50  93 N10       30.07R
SAINT CLOUD    CLOUDY    55  54  96 VRB6      30.02F
MINNEAPOLIS    CLOUDY    60  58  92 N9        30.00S
$$

  *****  WEATHER ACROSS SOUTH DAKOTA  *****

CITY           SKY/WX    TMP DP  RH WIND       PRES   REMARKS
SIOUX FALLS    CLOUDY    54  52  93 NE10      30.05R
BROOKINGS      CLOUDY    50  48  93 N10       30.07R
WATERTOWN      CLOUDY    50  47  89 N14       30.06S
HURON          CLOUDY    51  47  86 N14       30.08F
SISSETON         N/A     54  48  80 N16       30.07S
ABERDEEN       CLOUDY    51  47  86 N10       30.11S
MITCHELL       CLOUDY    52  50  93 NE10      30.08S
PIERRE         CLOUDY    51  42  71 N12       30.12R
MOBRIDGE       CLOUDY    51  46  83 NE12      30.12S
RAPID CITY     CLOUDY    45  43  93 S6        30.15S
$$

  *****  SOME WEATHER IN NEARBY STATES *****

CITY           SKY/WX    TMP DP  RH WIND       PRES   REMARKS
GLASGOW MT     CLOUDY    47  43  86 E8        30.12F
GREAT FALLS MT FAIR      51  33  50 S13       30.05S
CHEYENNE WY    FAIR      42  36  79 CALM      30.12S
SCOTTSBLUFF NE CLOUDY    46  41  82 E3        30.14S
OMAHA NE       LGT RAIN  66  61  84 NE3       29.95S
DES MOINES IA  FAIR      79  67  66 SE5       29.93F
DAVENPORT IA   FAIR      81  65  58 VRB3      30.00S
CHICAGO IL     FAIR      84  61  45 VRB6      30.01S
EAU CLAIRE WI  FAIR      76  64  66 NE5       29.95F
LA CROSSE WI   FAIR      80  64  58 S8        29.95S
$$

  *****  SOME NATIONAL WEATHER *****

CITY           SKY/WX    TMP DP  RH WIND       PRES   REMARKS
LA GUARDIA NY  FAIR      81  67  62 NE9       30.06F
RALEIGH NC     PTSUNNY   79  66  64 VRB7      30.00F
ATLANTA GA     FAIR      82  62  50 E14       30.05S
NEW ORLEANS LA FAIR      81  71  71 NE9       29.93S
OKLAHOMA CITY  PTSUNNY   77  68  73 S10       29.93R
ALBUQUERQUE NM FAIR      59  23  25 NW8       30.02R
SALT LAKE CITY FAIR      48  41  76 SE6       30.15R
LOS ANGELES CA FAIR      76  34  21 E3        29.86S
BOISE ID       FAIR      49  34  56 SE6       30.14R
SEATTLE WA     LGT RAIN  57  53  86 S5        30.11R
$$

*** WEATHER ACROSS MANITOBA...SASKATCHEWAN AND ONTARIO ***
                ***ONTARIO***

CITY           SKY/WX    TMP DP  RH WIND       PRES   REMARKS
GERALDTON      CLOUDY    61  55  82 W8        29.94R
THUNDER BAY    CLOUDY    64  54  68 W8        29.98R
SIOUX LOOKOUT  DRIZZLE   50  48  93 N3        30.06R
TORONTO        PTSUNNY   86  64  48 SE7       30.09F
BIG TROUT LK   CLOUDY    46  46 100 N6        30.07  FOG
PICKLE LAKE    CLOUDY    48  46  93 VRB6      30.04R
DRYDEN         CLOUDY    50  48  93 N6        30.07R FOG
KENORA         PTSUNNY   50  46  87 N9G17     30.09F
$$
                *** MANITOBA***

CITY           SKY/WX    TMP DP  RH WIND       PRES   REMARKS
BRANDON        PTSUNNY   50  39  66 N5        30.18F
DAUPHIN        CLOUDY    50  45  81 W5        30.18F
ISLAND LAKE    CLOUDY    43  41  93 N5        30.18R
PILOT MOUND      N/A     48  41  76 N10         N/A
THE PAS        MOSUNNY   48  41  76 SE12      30.16S
THOMPSON       PTSUNNY   41  32  70 E5        30.21R
WINNIPEG       CLOUDY    50  43  76 N10       30.16F
LYNN LAKE      CLOUDY    41  39  93 S13       30.13S
CHURCHILL      PTSUNNY   43  34  70 W8        30.18S
GILLAM         PTSUNNY   41  27  56 N7        30.21S
$$
                ***SASKATCHEWAN***

CITY           SKY/WX    TMP DP  RH WIND       PRES   REMARKS
ESTEVAN        PTSUNNY   48  43  81 SE5       30.16F
KINDERSLEY     PTSUNNY   48  36  61 S9        30.01S
LLOYDMINSTER   CLOUDY    50  37  62 S12       29.94S
PRINCE ALBERT  PTSUNNY   48  39  71 S6        30.07F
REGINA         CLOUDY    50  39  66 SE7       30.13F
YORKTON        CLOUDY    50  39  66 S7        30.15F
N. BATTLEFORD  CLOUDY    50  37  62 SE8       30.02S
LA RONGE       PTSUNNY   50  43  76 SE13      30.00F
SASKATOON      MOSUNNY   50  39  66 S12       30.07S
SWIFT CURRENT    N/A     52  37  58 S17       30.04S
$$
NOTE: THESE ARE AUTOMATED STATIONS WITH LIMITED QUALITY CONTROL
      "FAIR" INDICATES FEW OR NO CLOUDS BELOW 12,000 FEET WITH NO
      SIGNIFICANT WEATHER AND/OR OBSTRUCTIONS TO VISIBILITY.
      SKY/WX - SKY CONDITION AND SIGNIFICANT WEATHER.
      TMP - AIR TEMPERATURE.    DP   - DEWPOINT TEMPERATURE.
      RH  - RELATIVE HUMIDITY.  PRES - PRESSURE.
      HX  - HEAT INDEX.         WCI  - WIND CHILL INDEX.
$




USA.gov is the U.S. government's official web portal to all federal, state and local government web resources and services.